VOE2611 LFST-LFBD

Flight info

Callsign VOE2611
Flight time 1h 10m
Altitude 31000
Route POGOL R11 EPL DCT JOCUZ DCT NUCIF DCT PIBAT DCT MOU DCT ENUPA DCT KUKOR DCT GUERE/N0375F230 DCT BEBIX DCT LMG
Aircraft A320/M-SDE3FGHIRWY/LB1

Departure

Time 2026-05-05 19:16
Airport Strasbourg Airport (LFST)

Arrival

Time 2026-05-05 20:26
Airport Bordeaux–Mérignac Airport (LFBD)
Time Latitude Longitude Altitude Speed Heading
2026-05-05 18:54 48.54418 7.62885 512 ft 0 kts 349°
2026-05-05 19:06 48.54401 7.62890 512 ft 4 kts 349°
2026-05-05 19:07 48.54376 7.62897 512 ft 2 kts 349°
2026-05-05 19:07 48.54356 7.62907 512 ft 4 kts 303°
2026-05-05 19:07 48.54355 7.62936 512 ft 4 kts 233°
2026-05-05 19:07 48.54369 7.62961 512 ft 0 kts 229°
2026-05-05 19:09 48.54355 7.62936 512 ft 6 kts 229°
2026-05-05 19:10 48.54317 7.62869 512 ft 11 kts 230°
2026-05-05 19:10 48.54236 7.62854 512 ft 15 kts 143°
2026-05-05 19:10 48.54144 7.62937 512 ft 17 kts 187°
2026-05-05 19:10 48.54050 7.62802 512 ft 21 kts 229°
2026-05-05 19:11 48.53952 7.62635 512 ft 22 kts 229°
2026-05-05 19:11 48.53850 7.62458 512 ft 23 kts 229°
2026-05-05 19:11 48.53744 7.62279 512 ft 20 kts 229°
2026-05-05 19:11 48.53648 7.62114 512 ft 21 kts 228°
2026-05-05 19:12 48.53560 7.61960 513 ft 19 kts 229°
2026-05-05 19:12 48.53477 7.61820 512 ft 11 kts 227°
2026-05-05 19:12 48.53431 7.61743 512 ft 9 kts 228°
2026-05-05 19:12 48.53393 7.61678 512 ft 9 kts 229°
2026-05-05 19:13 48.53342 7.61591 512 ft 12 kts 229°
2026-05-05 19:13 48.53294 7.61507 512 ft 10 kts 229°
2026-05-05 19:13 48.53241 7.61480 512 ft 7 kts 173°
2026-05-05 19:13 48.53203 7.61512 512 ft 5 kts 143°
2026-05-05 19:14 48.53178 7.61544 512 ft 4 kts 136°
2026-05-05 19:14 48.53147 7.61602 512 ft 9 kts 118°
2026-05-05 19:14 48.53159 7.61672 512 ft 1 kts 50°
2026-05-05 19:15 48.53162 7.61677 512 ft 6 kts 49°
2026-05-05 19:15 48.53367 7.62028 511 ft 82 kts 49°
2026-05-05 19:15 48.53889 7.62925 510 ft 143 kts 48°
2026-05-05 19:15 48.54628 7.64216 738 ft 170 kts 50°
2026-05-05 19:16 48.55405 7.65549 1432 ft 169 kts 50°
2026-05-05 19:16 48.56193 7.66888 2080 ft 171 kts 50°
2026-05-05 19:16 48.56998 7.68261 2496 ft 184 kts 49°
2026-05-05 19:16 48.57911 7.69766 2777 ft 203 kts 41°
2026-05-05 19:17 48.59241 7.70562 3073 ft 216 kts 354°
2026-05-05 19:17 48.60632 7.69749 3467 ft 222 kts 319°
2026-05-05 19:17 48.61789 7.68265 4201 ft 218 kts 312°
2026-05-05 19:17 48.62838 7.66674 5097 ft 209 kts 303°
2026-05-05 19:18 48.63337 7.64668 5645 ft 207 kts 267°
2026-05-05 19:18 48.63040 7.62564 6304 ft 206 kts 242°
2026-05-05 19:18 48.62145 7.60847 6884 ft 212 kts 227°
2026-05-05 19:18 48.61474 7.59761 7288 ft 215 kts 229°
2026-05-05 19:19 48.60495 7.58083 8063 ft 210 kts 232°
2026-05-05 19:19 48.59808 7.56123 8684 ft 216 kts 253°
2026-05-05 19:19 48.59644 7.53781 9045 ft 238 kts 272°
2026-05-05 19:19 48.59853 7.50275 9458 ft 265 kts 271°
2026-05-05 19:20 48.59939 7.48379 9857 ft 271 kts 271°
2026-05-05 19:20 48.60058 7.45438 10167 ft 291 kts 271°
2026-05-05 19:20 48.60177 7.42314 10367 ft 312 kts 271°
2026-05-05 19:20 48.60306 7.38988 10884 ft 321 kts 271°
2026-05-05 19:21 48.60442 7.35586 11530 ft 326 kts 271°
2026-05-05 19:21 48.60585 7.32145 12205 ft 330 kts 271°
2026-05-05 19:21 48.60544 7.28675 12842 ft 332 kts 258°
2026-05-05 19:21 48.59758 7.25403 13487 ft 333 kts 238°
2026-05-05 19:22 48.58406 7.22538 14103 ft 336 kts 233°
2026-05-05 19:22 48.56987 7.19704 14691 ft 340 kts 232°
2026-05-05 19:22 48.55545 7.16849 15263 ft 343 kts 232°
2026-05-05 19:22 48.54084 7.13969 15837 ft 347 kts 232°
2026-05-05 19:23 48.52610 7.11065 16417 ft 350 kts 232°
2026-05-05 19:23 48.51122 7.08129 16998 ft 354 kts 232°
2026-05-05 19:23 48.49622 7.05164 17567 ft 357 kts 232°
2026-05-05 19:23 48.48127 7.02207 18105 ft 361 kts 232°
2026-05-05 19:24 48.46597 6.99176 18601 ft 364 kts 232°
2026-05-05 19:24 48.45055 6.96121 19100 ft 367 kts 231°
2026-05-05 19:24 48.43501 6.93048 19604 ft 370 kts 231°
2026-05-05 19:24 48.41930 6.89951 20111 ft 373 kts 231°
2026-05-05 19:25 48.40344 6.86831 20603 ft 377 kts 231°
2026-05-05 19:25 48.38744 6.83686 21093 ft 380 kts 231°
2026-05-05 19:25 48.37129 6.80519 21592 ft 383 kts 231°
2026-05-05 19:25 48.35500 6.77329 22086 ft 386 kts 231°
2026-05-05 19:26 48.33882 6.74161 22553 ft 389 kts 230°
2026-05-05 19:26 48.32226 6.70916 23025 ft 391 kts 230°
2026-05-05 19:26 48.30557 6.67655 23468 ft 394 kts 230°
2026-05-05 19:26 48.28877 6.64375 23850 ft 397 kts 230°
2026-05-05 19:27 48.27189 6.61082 24227 ft 399 kts 230°
2026-05-05 19:27 48.25493 6.57778 24592 ft 401 kts 230°
2026-05-05 19:27 48.23783 6.54455 24987 ft 402 kts 230°
2026-05-05 19:27 48.22071 6.51132 25369 ft 403 kts 230°
2026-05-05 19:28 48.20347 6.47797 25728 ft 405 kts 230°
2026-05-05 19:28 48.18617 6.44451 26080 ft 406 kts 230°
2026-05-05 19:28 48.16909 6.41140 26431 ft 408 kts 230°
2026-05-05 19:28 48.15163 6.37762 26731 ft 411 kts 230°
2026-05-05 19:29 48.13407 6.34369 27047 ft 413 kts 230°
2026-05-05 19:29 48.11641 6.30960 27365 ft 415 kts 230°
2026-05-05 19:29 48.09863 6.27534 27685 ft 417 kts 230°
2026-05-05 19:29 48.08077 6.24104 28002 ft 419 kts 230°
2026-05-05 19:30 48.06274 6.20652 28311 ft 421 kts 230°
2026-05-05 19:30 48.04467 6.17197 28650 ft 422 kts 230°
2026-05-05 19:30 48.02660 6.13740 28970 ft 423 kts 230°
2026-05-05 19:30 48.00847 6.10273 29258 ft 424 kts 230°
2026-05-05 19:31 47.99024 6.06788 29542 ft 426 kts 230°
2026-05-05 19:31 47.97196 6.03296 29784 ft 428 kts 230°
2026-05-05 19:31 47.95361 5.99799 30029 ft 429 kts 230°
2026-05-05 19:31 47.93519 5.96288 30237 ft 431 kts 230°
2026-05-05 19:32 47.91667 5.92764 30451 ft 432 kts 229°
2026-05-05 19:32 47.89817 5.89252 30660 ft 434 kts 229°
2026-05-05 19:32 47.87953 5.85719 30825 ft 434 kts 229°
2026-05-05 19:32 47.86134 5.82273 30862 ft 421 kts 229°
2026-05-05 19:33 47.82574 5.75542 30860 ft 410 kts 229°
2026-05-05 19:33 47.79050 5.68894 30857 ft 409 kts 229°
2026-05-05 19:34 47.75552 5.62218 30858 ft 409 kts 231°
2026-05-05 19:35 47.70707 5.51777 30861 ft 410 kts 233°
2026-05-05 19:35 47.67525 5.44799 30876 ft 410 kts 233°
2026-05-05 19:36 47.64276 5.37830 30862 ft 410 kts 233°
2026-05-05 19:36 47.60999 5.30889 30854 ft 410 kts 232°
2026-05-05 19:37 47.57723 5.23960 30857 ft 410 kts 233°
2026-05-05 19:37 47.54471 5.17079 30852 ft 410 kts 232°
2026-05-05 19:38 47.51192 5.10162 30850 ft 410 kts 232°
2026-05-05 19:38 47.47906 5.03256 30852 ft 410 kts 233°
2026-05-05 19:39 47.44633 4.96378 30878 ft 409 kts 233°
2026-05-05 19:39 47.41347 4.89494 30868 ft 409 kts 233°
2026-05-05 19:40 47.38066 4.82634 30858 ft 409 kts 233°
2026-05-05 19:40 47.34781 4.75794 30858 ft 408 kts 233°
2026-05-05 19:41 47.31511 4.68997 30859 ft 408 kts 233°
2026-05-05 19:41 47.28206 4.62129 30863 ft 408 kts 233°
2026-05-05 19:42 47.24933 4.55372 30870 ft 407 kts 233°
2026-05-05 19:42 47.21641 4.48587 30872 ft 407 kts 233°
2026-05-05 19:43 47.18348 4.41810 30866 ft 407 kts 233°
2026-05-05 19:43 47.15048 4.35031 30861 ft 407 kts 233°
2026-05-05 19:44 47.11747 4.28268 30854 ft 407 kts 232°
2026-05-05 19:44 47.08440 4.21505 30860 ft 407 kts 233°
2026-05-05 19:45 47.05162 4.14815 30870 ft 406 kts 232°
2026-05-05 19:45 47.01865 4.08109 30879 ft 406 kts 232°
2026-05-05 19:46 46.98556 4.01401 30864 ft 406 kts 232°
2026-05-05 19:46 46.95251 3.94711 30860 ft 407 kts 232°
2026-05-05 19:47 46.91924 3.88005 30860 ft 407 kts 232°
2026-05-05 19:47 46.88617 3.81335 30868 ft 406 kts 232°
2026-05-05 19:48 46.85324 3.74707 30877 ft 405 kts 232°
2026-05-05 19:48 46.82019 3.68092 30879 ft 404 kts 232°
2026-05-05 19:49 46.78703 3.61477 30876 ft 403 kts 232°
2026-05-05 19:49 46.75393 3.54873 30872 ft 403 kts 232°
2026-05-05 19:50 46.72086 3.48279 30874 ft 402 kts 232°
2026-05-05 19:50 46.68770 3.41701 30871 ft 402 kts 232°
2026-05-05 19:51 46.65456 3.35141 30865 ft 402 kts 232°
2026-05-05 19:51 46.62140 3.28588 30865 ft 402 kts 232°
2026-05-05 19:52 46.58837 3.22072 30889 ft 402 kts 232°
2026-05-05 19:52 46.55508 3.15520 30869 ft 403 kts 232°
2026-05-05 19:53 46.52699 3.08444 30865 ft 406 kts 242°
2026-05-05 19:53 46.50247 3.01045 30873 ft 406 kts 242°
2026-05-05 19:54 46.47796 2.93700 30874 ft 406 kts 242°
2026-05-05 19:54 46.45324 2.86327 30879 ft 406 kts 242°
2026-05-05 19:55 46.42845 2.78953 30895 ft 406 kts 242°
2026-05-05 19:55 46.40366 2.71586 30882 ft 407 kts 242°
2026-05-05 19:56 46.37885 2.64252 30883 ft 408 kts 242°
2026-05-05 19:56 46.35387 2.56875 30882 ft 408 kts 242°
2026-05-05 19:57 46.32884 2.49484 30884 ft 408 kts 242°
2026-05-05 19:57 46.30376 2.42115 30890 ft 408 kts 242°
2026-05-05 19:58 46.27861 2.34752 30892 ft 409 kts 242°
2026-05-05 19:58 46.25337 2.27384 30887 ft 409 kts 242°
2026-05-05 19:59 46.22806 2.20010 30890 ft 410 kts 242°
2026-05-05 19:59 46.20263 2.12638 30895 ft 410 kts 242°
2026-05-05 20:00 46.17722 2.05260 30899 ft 410 kts 242°
2026-05-05 20:00 46.15181 1.97888 30915 ft 410 kts 242°
2026-05-05 20:01 46.12628 1.90526 30920 ft 410 kts 241°
2026-05-05 20:01 46.10071 1.83172 30915 ft 410 kts 241°
2026-05-05 20:02 46.07526 1.75868 30919 ft 410 kts 241°
2026-05-05 20:02 46.04965 1.68530 30918 ft 410 kts 241°
2026-05-05 20:03 46.02398 1.61202 30916 ft 410 kts 241°
2026-05-05 20:03 45.99821 1.53864 30915 ft 411 kts 241°
2026-05-05 20:04 45.97248 1.46559 30903 ft 412 kts 241°
2026-05-05 20:04 45.94644 1.39190 30903 ft 413 kts 241°
2026-05-05 20:05 45.92036 1.31837 30902 ft 413 kts 241°
2026-05-05 20:05 45.89416 1.24486 30901 ft 413 kts 241°
2026-05-05 20:06 45.86798 1.17142 30915 ft 414 kts 241°
2026-05-05 20:06 45.84617 1.11026 30901 ft 415 kts 240°
2026-05-05 20:07 45.81494 1.02494 30925 ft 415 kts 236°
2026-05-05 20:07 45.78683 0.96847 30946 ft 425 kts 232°
2026-05-05 20:08 45.75134 0.89875 30942 ft 437 kts 232°
2026-05-05 20:08 45.73354 0.86375 30739 ft 429 kts 232°
2026-05-05 20:08 45.71607 0.82938 29998 ft 423 kts 232°
2026-05-05 20:08 45.69903 0.79597 29165 ft 419 kts 232°
2026-05-05 20:09 45.68174 0.76210 28325 ft 414 kts 232°
2026-05-05 20:09 45.66502 0.72940 27515 ft 411 kts 232°
2026-05-05 20:09 45.64824 0.69663 26770 ft 406 kts 232°
2026-05-05 20:09 45.63163 0.66426 26060 ft 401 kts 232°
2026-05-05 20:10 45.61526 0.63240 25400 ft 395 kts 232°
2026-05-05 20:10 45.59915 0.60105 24878 ft 387 kts 232°
2026-05-05 20:10 45.58342 0.57046 24421 ft 378 kts 232°
2026-05-05 20:10 45.56805 0.54055 23977 ft 369 kts 232°
2026-05-05 20:11 45.55297 0.51123 23514 ft 362 kts 232°
2026-05-05 20:11 45.53825 0.48269 23032 ft 354 kts 232°
2026-05-05 20:11 45.52381 0.45482 22598 ft 344 kts 232°
2026-05-05 20:11 45.50972 0.42771 22174 ft 336 kts 232°
2026-05-05 20:12 45.49594 0.40118 21765 ft 329 kts 232°
2026-05-05 20:12 45.48251 0.37528 21360 ft 322 kts 233°
2026-05-05 20:12 45.46926 0.34971 20964 ft 320 kts 233°
2026-05-05 20:12 45.45621 0.32452 20573 ft 319 kts 233°
2026-05-05 20:13 45.44305 0.29915 20179 ft 317 kts 233°
2026-05-05 20:13 45.42997 0.27393 19732 ft 319 kts 233°
2026-05-05 20:13 45.41637 0.24782 19008 ft 333 kts 233°
2026-05-05 20:13 45.40236 0.22105 18320 ft 341 kts 233°
2026-05-05 20:14 45.38800 0.19362 17544 ft 348 kts 233°
2026-05-05 20:14 45.37346 0.16580 16938 ft 350 kts 233°
2026-05-05 20:14 45.35903 0.13816 16531 ft 347 kts 233°
2026-05-05 20:14 45.34470 0.11066 16072 ft 345 kts 234°
2026-05-05 20:15 45.33058 0.08324 15646 ft 343 kts 234°
2026-05-05 20:15 45.31660 0.05588 15210 ft 341 kts 234°
2026-05-05 20:15 45.30272 0.02870 14778 ft 339 kts 234°
2026-05-05 20:15 45.28891 0.00171 14250 ft 336 kts 234°
2026-05-05 20:16 45.27520 -0.02496 13687 ft 333 kts 234°
2026-05-05 20:16 45.26155 -0.05146 13047 ft 331 kts 234°
2026-05-05 20:16 45.24799 -0.07781 12436 ft 329 kts 234°
2026-05-05 20:16 45.23453 -0.10395 11860 ft 326 kts 235°
2026-05-05 20:17 45.22138 -0.12946 11296 ft 322 kts 235°
2026-05-05 20:17 45.20825 -0.15488 10578 ft 317 kts 234°
2026-05-05 20:17 45.19538 -0.17972 10188 ft 303 kts 234°
2026-05-05 20:17 45.18324 -0.20308 9907 ft 287 kts 234°
2026-05-05 20:18 45.17150 -0.22573 9284 ft 283 kts 234°
2026-05-05 20:18 45.15832 -0.24634 8674 ft 282 kts 226°
2026-05-05 20:18 45.14457 -0.26616 8186 ft 279 kts 227°
2026-05-05 20:18 45.13096 -0.28584 7631 ft 279 kts 227°
2026-05-05 20:19 45.11766 -0.30506 7098 ft 277 kts 227°
2026-05-05 20:19 45.10412 -0.32459 6529 ft 272 kts 227°
2026-05-05 20:19 45.09116 -0.34322 5997 ft 268 kts 227°
2026-05-05 20:19 45.07804 -0.36172 5484 ft 265 kts 226°
2026-05-05 20:20 45.06493 -0.37999 4999 ft 265 kts 226°
2026-05-05 20:20 45.05170 -0.39834 4541 ft 265 kts 225°
2026-05-05 20:20 45.03792 -0.41571 4082 ft 265 kts 224°
2026-05-05 20:20 45.02500 -0.43312 4012 ft 249 kts 227°
2026-05-05 20:21 45.01325 -0.45004 3933 ft 234 kts 228°
2026-05-05 20:21 45.00215 -0.46615 3851 ft 223 kts 228°
2026-05-05 20:21 44.99155 -0.48146 3751 ft 212 kts 228°
2026-05-05 20:21 44.98144 -0.49604 3583 ft 206 kts 228°
2026-05-05 20:22 44.97135 -0.51059 3237 ft 208 kts 228°
2026-05-05 20:22 44.96123 -0.52515 3007 ft 204 kts 228°
2026-05-05 20:22 44.95160 -0.53900 3003 ft 198 kts 228°
2026-05-05 20:22 44.94186 -0.55302 2986 ft 197 kts 229°
2026-05-05 20:23 44.93238 -0.56665 2806 ft 196 kts 229°
2026-05-05 20:23 44.92282 -0.58038 2567 ft 195 kts 228°
2026-05-05 20:23 44.91344 -0.59384 2343 ft 186 kts 228°
2026-05-05 20:23 44.90466 -0.60643 2066 ft 175 kts 229°
2026-05-05 20:24 44.89652 -0.61809 1853 ft 157 kts 229°
2026-05-05 20:24 44.88926 -0.62851 1639 ft 143 kts 229°
2026-05-05 20:24 44.88241 -0.63834 1444 ft 138 kts 229°
2026-05-05 20:24 44.87570 -0.64797 1256 ft 137 kts 229°
2026-05-05 20:25 44.86902 -0.65751 1069 ft 136 kts 227°
2026-05-05 20:25 44.86234 -0.66709 881 ft 137 kts 227°
2026-05-05 20:25 44.85566 -0.67665 700 ft 137 kts 226°
2026-05-05 20:25 44.84900 -0.68621 517 ft 136 kts 226°
2026-05-05 20:26 44.84237 -0.69570 317 ft 136 kts 226°
2026-05-05 20:26 44.83585 -0.70508 166 ft 126 kts 226°
2026-05-05 20:26 44.83086 -0.71222 167 ft 79 kts 225°
2026-05-05 20:26 44.82786 -0.71650 172 ft 48 kts 225°
2026-05-05 20:27 44.82615 -0.71894 173 ft 20 kts 226°
2026-05-05 20:27 44.82508 -0.71890 171 ft 18 kts 116°
2026-05-05 20:27 44.82443 -0.71734 170 ft 18 kts 105°
2026-05-05 20:27 44.82505 -0.71601 170 ft 16 kts 45°
2026-05-05 20:28 44.82578 -0.71496 170 ft 14 kts 45°
2026-05-05 20:28 44.82643 -0.71403 170 ft 12 kts 45°
2026-05-05 20:28 44.82701 -0.71322 170 ft 11 kts 45°
2026-05-05 20:28 44.82775 -0.71216 168 ft 20 kts 46°
2026-05-05 20:29 44.82874 -0.71071 170 ft 21 kts 46°
2026-05-05 20:29 44.82976 -0.70927 169 ft 21 kts 45°
2026-05-05 20:29 44.83082 -0.70777 169 ft 22 kts 45°
2026-05-05 20:29 44.83185 -0.70629 167 ft 15 kts 45°
2026-05-05 20:30 44.83191 -0.70532 167 ft 10 kts 108°
2026-05-05 20:30 44.83223 -0.70460 166 ft 9 kts 43°
2026-05-05 20:30 44.83218 -0.70403 167 ft 6 kts 136°
2026-05-05 20:30 44.83194 -0.70369 167 ft 4 kts 136°
2026-05-05 20:31 44.83187 -0.70360 167 ft 0 kts 135°
2026-05-05 20:31 44.83187 -0.70359 167 ft 0 kts 136°
2026-05-05 20:33 44.83187 -0.70360 167 ft 0 kts 136°